Regional Weather Roundup
Issued by NWS

Home | Current Version | Previous Version | Graphics & Text | Print | Product List | Glossary On
Versions: 1 2 3 4 5 6 7 8 9 10 11 12 13 14 15 16 17 18 19 20 21 22 23 24 25 26 27 28 29 30 31 32 33 34 35 36 37 38 39 40 41 42 43 44 45 46 47 48 49 50
000
ASUS43 KLOT 301158
RWRIL

ILLINOIS REGIONAL WEATHER ROUNDUP
NATIONAL WEATHER SERVICE CHICAGO/ROMEOVILLE IL
700 AM CDT TUE SEP 30 2014

NOTE: "FAIR" INDICATES FEW OR NO CLOUDS BELOW 12,000 FEET WITH NO
SIGNIFICANT WEATHER AND/OR OBSTRUCTIONS TO VISIBILITY.

* THESE STATIONS ARE NOT UNDER NWS QUALITY CONTROL. THEY ALSO MAY NOT
  REPORT WEATHER SUCH AS PRECIPITATION OR FOG.

ILZ001-002-007-009-015-016-024-301300-
NORTHWEST ILLINOIS

CITY           SKY/WX    TMP DP  RH WIND       PRES   REMARKS
MOLINE         NOT AVBL
$$

ILZ003-004-008-010-011-017-018-301300-
NORTH CENTRAL ILLINOIS

CITY           SKY/WX    TMP DP  RH WIND       PRES   REMARKS
ROCKFORD       DRIZZLE   48  45  89 E9        30.08S
6HR MIN TEMP:  48; 6HR MAX TEMP:  54; 6HR PCP: TRACE;

$$

ILZ005-006-012>014-019>023-301300-
NORTHEAST ILLINOIS

CITY           SKY/WX    TMP DP  RH WIND       PRES   REMARKS
CHICAGO-OHARE  DRIZZLE   48  45  89 N12       30.04S FOG
6HR MIN TEMP:  48; 6HR MAX TEMP:  54; 6HR PCP: TRACE;

CHICAGO-MIDWAY CLOUDY    53  49  86 N10       30.04R
6HR MIN TEMP:  53; 6HR MAX TEMP:  57; 6HR PCP: TRACE;

AURORA         MOCLDY    48  42  80 N10       30.06S
6HR MIN TEMP:  48; 6HR MAX TEMP:  55;

WAUKEGAN       CLOUDY    44  43  96 NW5       30.06R FOG
6HR MIN TEMP:  44; 6HR MAX TEMP:  51; 6HR PCP: TRACE;

DUPAGE AIRPORT CLOUDY    48  44  86 N12       30.05S
6HR MIN TEMP:  48; 6HR MAX TEMP:  54;

WHEELING       CLOUDY    48  45  89 N8        30.06F
6HR MIN TEMP:  48; 6HR MAX TEMP:  55;

NORTHERLY ISL    N/A     53  47  79 MISG        N/A
$$

LMZ740>746-301300-
SOUTHERN LAKE MICHIGAN

STATION/POSITION SKY/WX   TEMP    WIND        PRES    VSBY  WAVE
                          AIR SEA DIR/SP/G                  HT/PER
                          (F)     (DEG/KT/KT) (MB)    (MI)  (FT/S)
SOUTHERN BUOY              51 61  350/ 16/ 21 1016.9R         7/ 8
WAUKEGAN HARBOR                   330/ 11/ 16   N/A
HARRISON CRIB              53     360/ 18/ 21   N/A
BURNHAM HARBOR             53      20/ 11/ 17   N/A
CALUMET HARBOR             54      10/ 12/ 16 1015.8S
MICHIGAN CITY              54     350/ 17/ 22   N/A
MICHIGAN CITY 6N           55 65   10/ 16/ 21   N/A           7/ 2
ST. JOSEPH                 54 62   10/ 16/ 21   N/A           6/ 2
$$

ILZ025>027-034>036-040-047-049-050-058-095>099-301300-
WEST-CENTRAL ILLINOIS

CITY           SKY/WX    TMP DP  RH WIND       PRES   REMARKS
$$

ILZ028>032-037-038-041>044-048-051>054-059>061-301300-
CENTRAL ILLINOIS

CITY           SKY/WX    TMP DP  RH WIND       PRES   REMARKS
PEORIA         CLOUDY    59  53  80 E9        30.01R
6HR MIN TEMP:  59; 6HR MAX TEMP:  65;

SPRINGFIELD    FOG       58  57  97 NE10      29.99R VSB 3/4
6HR MIN TEMP:  57; 6HR MAX TEMP:  61;

TAYLORVILLE    NOT AVBL
$$

ILZ033-039-045-046-055>057-062-063-301300-
EAST-CENTRAL ILLINOIS

CITY           SKY/WX    TMP DP  RH WIND       PRES   REMARKS
MATTOON        CLOUDY    57  57 100 NE8       29.97R
$$

ILZ079-100>102-301300-
SOUTHWEST ILLINOIS

CITY           SKY/WX    TMP DP  RH WIND       PRES   REMARKS
ALTON          PTCLDY    55  55 100 CALM      29.96S FOG
CAHOKIA*       CLEAR     57  56  96 CALM      29.96S
$$

ILZ064>066-069>071-074>076-080>082-084>086-088>090-092>094-301300-
SOUTH-CENTRAL ILLINOIS

CITY           SKY/WX    TMP DP  RH WIND       PRES   REMARKS
CARBONDALE     CLEAR     52  50  93 CALM      29.96R FOG
6HR MIN TEMP:  52; 6HR MAX TEMP:  57;

$$

ILZ067-068-072-073-078-083-087-091-301300-
SOUTHEAST ILLINOIS

CITY           SKY/WX    TMP DP  RH WIND       PRES   REMARKS
$$

ABBREVIATIONS USED IN REMARKS
   TC - TEMPERATURE IN CELSIUS
  WCI - WIND CHILL INDEX
   HX - HEAT INDEX
  VSB - VISIBILITY
$$




USA.gov is the U.S. government's official web portal to all federal, state and local government web resources and services.